[[{"header":{"parameterUnit":"m.s-1","parameterCategory":1,"la1":30.2991,"la2":30.254,"lo1":-89.0895,"lo2":-89.0444,"dy":0.0017,"dx":0.0017,"nx":28,"ny":28,"refTime":"2024-06-14T09:00:00:Z","depth":0,"parameterNumber":2,"parameterNumberName":"U-component_of_WINDS"},"data":[0,0,0,0,0,0,0,0,0,0,0,0,0,0,0,0,0,0,0,0,0,0,0,0,0,0,0,0,0,0,0,0,0,0,0,0,0,0,0,0,0,0,0,0,0,0,0,0,0,0,0,0,0,0,0,0,0,0,-1.7488,-1.7488,0,-1.7479,-1.7479,-1.7479,-1.7435,-1.7434,-1.7433,-1.7432,-1.7424,-1.7425,-1.7426,0,0,0,0,0,0,0,0,0,0,0,0,0,-1.7466,-1.7467,-1.7488,-1.7488,-1.7487,-1.7479,-1.7479,-1.7479,-1.7435,-1.7434,-1.7432,-1.7431,-1.7424,-1.7425,-1.7426,0,0,0,0,0,0,0,0,0,0,0,0,0,-1.7469,-1.7467,-1.7488,-1.7464,-1.7462,-1.7479,-1.7479,-1.7479,-1.7435,-1.7434,-1.7432,-1.7431,-1.7424,-1.7425,-1.7426,-1.7465,0,0,-1.7429,-1.743,0,0,0,0,0,0,0,0,-1.7469,-1.7469,-1.7468,-1.7466,-1.7464,-1.7456,-1.7469,-1.7474,-1.7436,-1.7446,-1.7432,-1.743,-1.7436,-1.7436,-1.7438,-1.7465,-1.7464,-1.743,-1.743,-1.7431,-1.7431,0,0,0,0,0,0,0,-1.7468,-1.747,-1.7484,-1.7468,-1.7465,-1.7455,-1.7453,-1.747,-1.745,-1.7445,-1.7441,-1.7441,-1.7435,-1.7437,-1.7438,-1.7464,-1.743,-1.7431,-1.7431,-1.7432,-1.7522,-1.7524,0,0,0,0,0,0,-1.7471,-1.747,-1.7485,-1.7484,-1.7462,-1.7456,-1.7455,-1.746,-1.745,-1.7446,-1.7442,-1.7439,-1.7436,-1.7436,-1.7437,-1.7482,-1.7431,-1.7432,-1.7433,-1.752,-1.7523,-1.7524,0,0,0,0,0,0,-1.7471,-1.7473,-1.7485,-1.7476,-1.7477,-1.7458,-1.7465,-1.7461,-1.7463,-1.7448,-1.7444,-1.7448,-1.7435,-1.7436,-1.7458,-1.7481,-1.7432,-1.7433,-1.7518,-1.7521,-1.7523,-1.7572,0,0,0,0,0,0,-1.7471,-1.7473,-1.7488,-1.7477,-1.7477,-1.7506,-1.7466,-1.7462,-1.7465,-1.7461,-1.7453,-1.745,-1.7433,-1.7457,-1.7459,-1.7482,-1.7434,-1.7516,-1.752,-1.7523,-1.7569,-1.7576,-1.7583,0,0,0,0,0,-1.747,-1.7502,-1.7489,-1.7491,-1.7495,-1.7507,-1.7508,-1.7488,-1.7467,-1.7482,-1.7472,-1.745,-1.7478,-1.7459,-1.7462,-1.7485,-1.7515,-1.7519,-1.7522,-1.7565,-1.7575,-1.7583,0,0,0,0,0,0,-1.7517,-1.75,-1.7485,-1.7515,-1.7513,-1.75,-1.7518,-1.7499,-1.7503,-1.7499,-1.7475,-1.7473,-1.7499,-1.7495,-1.7474,-1.7523,-1.7493,-1.7497,-1.7525,-1.7533,-1.754,-1.7541,-1.7435,0,0,0,0,0,-1.7531,-1.7542,-1.7527,-1.7554,-1.7554,-1.7536,-1.7541,-1.7526,-1.7523,-1.7522,-1.7514,-1.7512,-1.7521,-1.7527,-1.7534,-1.7568,-1.7565,-1.7585,-1.7592,-1.7598,-1.7602,-1.762,-1.7628,-1.7537,-1.7537,-1.7537,0,0,-1.7559,-1.7551,-1.756,-1.7563,-1.756,-1.7572,-1.7536,-1.755,-1.7559,-1.7524,-1.7545,-1.7539,-1.7536,-1.7564,-1.7576,-1.7561,-1.7627,-1.7603,-1.7608,-1.7609,-1.7625,-1.7633,-1.7641,-1.7539,-1.7539,-1.7539,0,0,-1.7617,-1.7613,-1.7635,-1.7632,-1.7628,-1.7615,-1.7621,-1.7611,-1.7605,-1.7626,-1.76,-1.761,-1.7626,-1.7624,-1.7625,-1.7683,-1.7663,-1.7686,-1.7723,-1.7741,-1.7748,-1.7754,-1.7775,-1.7782,-1.769,-1.7691,-1.7691,0,-1.7653,-1.767,-1.7649,-1.7665,-1.7667,-1.7636,-1.7658,-1.7657,-1.7655,-1.7658,-1.764,-1.7659,-1.7654,-1.7682,-1.7696,-1.7698,-1.7704,-1.7687,-1.7749,-1.7755,-1.776,-1.7779,-1.7787,-1.7693,-1.7693,-1.7693,-1.7693,0,-1.7715,-1.7727,-1.7746,-1.7744,-1.7749,-1.7768,-1.7749,-1.7757,-1.7741,-1.7731,-1.7752,-1.7746,-1.7751,-1.7757,-1.7742,-1.7782,-1.7773,-1.7753,-1.7722,-1.7772,-1.779,-1.7797,-1.7697,-1.7696,-1.7696,-1.7695,0,0,-1.7802,-1.7788,-1.7796,-1.7794,-1.7787,-1.7796,-1.7814,-1.7819,-1.7825,-1.7825,-1.784,-1.7853,-1.7834,-1.7836,-1.7821,-1.7836,-1.7882,-1.7814,-1.7814,-1.7827,-1.7926,-1.7942,-1.795,-1.7869,-1.787,-1.7871,-1.7926,0,-1.7858,-1.7887,-1.7868,-1.7901,-1.7912,-1.7882,-1.7898,-1.7895,-1.7886,-1.7895,-1.7885,-1.7895,-1.7869,-1.787,-1.7884,-1.7874,-1.7902,-1.787,-1.7883,-1.7883,-1.7884,-1.796,-1.7976,-1.8028,-1.7933,-1.7934,-1.7935,0,-1.7927,-1.7929,-1.7963,-1.7953,-1.7957,-1.7971,-1.7973,-1.7982,-1.7978,-1.7971,-1.7972,-1.7954,-1.7971,-1.7941,-1.7965,-1.7943,-1.7947,-1.7943,-1.7945,-1.7945,-1.7912,-1.7962,-1.8044,-1.8052,-1.7946,-1.7945,-1.7944,0,-1.7987,-1.7998,-1.802,-1.802,-1.8009,-1.802,-1.8016,-1.8011,-1.8015,-1.8017,-1.8019,-1.8024,-1.8027,-1.8031,-1.8014,-1.7994,-1.804,-1.8008,-1.8034,-1.8034,-1.8045,-1.8044,-1.8129,-1.8048,-1.8048,-1.8048,-1.8048,0,-1.8051,-1.8073,-1.8047,-1.806,-1.8084,-1.8061,-1.8085,-1.8078,-1.8074,-1.8086,-1.8061,-1.8072,-1.8049,-1.8058,-1.8045,-1.8067,-1.8068,-1.8063,-1.8059,-1.8065,-1.8065,-1.8067,-1.8063,-1.805,-1.8049,-1.8049,-1.8049,0,-1.8122,-1.8106,-1.8127,-1.8115,-1.8112,-1.813,-1.812,-1.8132,-1.8121,-1.8136,-1.8138,-1.8122,-1.8131,-1.8115,-1.8122,-1.8114,-1.8143,-1.8134,-1.8145,-1.8142,-1.8168,-1.8166,-1.8257,-1.8267,-1.818,-1.8181,-1.8181,0,-1.8164,-1.818,-1.8169,-1.8175,-1.8172,-1.8182,-1.8186,-1.8164,-1.8169,-1.8166,-1.8179,-1.8186,-1.8191,-1.8208,-1.8197,-1.8202,-1.8193,-1.8224,-1.8194,-1.8199,-1.8193,-1.8193,-1.8194,-1.8231,-1.8232,-1.8233,-1.8233,0,-1.824,-1.8231,-1.8237,-1.8241,-1.8246,-1.8247,-1.8247,-1.8253,-1.8231,-1.8238,-1.8247,-1.8251,-1.8258,-1.8266,-1.8269,-1.8265,-1.8246,-1.8243,-1.8249,-1.8255,-1.8261,-1.8258,-1.8162,-1.8241,-1.824,-1.824,-1.8239,-1.8239,-1.8298,-1.8311,-1.8305,-1.8313,-1.831,-1.8311,-1.8321,-1.8311,-1.8319,-1.8323,-1.831,-1.8322,-1.8318,-1.832,-1.8318,-1.8328,-1.8314,-1.8323,-1.8325,-1.8328,-1.8332,-1.8259,-1.8328,-1.8328,-1.8328,-1.8328,-1.8327,0,-1.8373,-1.8368,-1.8375,-1.8375,-1.8381,-1.8362,-1.8361,-1.8367,-1.8378,-1.8376,-1.838,-1.8391,-1.8398,-1.8388,-1.8393,-1.8403,-1.8394,-1.8405,-1.8404,-1.8404,-1.8344,-1.8338,-1.8412,-1.8412,-1.8412,-1.8412,-1.8412,-1.8412,-1.8413,-1.8433,-1.8424,-1.8442,-1.8437,-1.8448,-1.8449,-1.845,-1.8447,-1.846,-1.8466,-1.8459,-1.8453,-1.8458,-1.8464,-1.846,-1.8464,-1.8478,-1.8471,-1.8416,-1.8408,-1.84,-1.8394,-1.8479,-1.8479,-1.853,-1.8531,-1.8531]},{"header":{"parameterUnit":"m.s-1","parameterCategory":1,"la1":30.2991,"la2":30.254,"lo1":-89.0895,"lo2":-89.0444,"dy":0.0017,"dx":0.0017,"nx":28,"ny":28,"refTime":"2024-06-14T09:00:00:Z","depth":0,"parameterNumber":3,"parameterNumberName":"V-component_of_WINDS"},"data":[0,0,0,0,0,0,0,0,0,0,0,0,0,0,0,0,0,0,0,0,0,0,0,0,0,0,0,0,0,0,0,0,0,0,0,0,0,0,0,0,0,0,0,0,0,0,0,0,0,0,0,0,0,0,0,0,0,0,3.5626,3.5626,0,3.5668,3.5668,3.5669,3.5643,3.5642,3.5641,3.564,3.5678,3.568,3.5683,0,0,0,0,0,0,0,0,0,0,0,0,0,3.552,3.5522,3.5626,3.5626,3.5627,3.5668,3.5668,3.5669,3.5643,3.5642,3.564,3.5639,3.5678,3.568,3.5683,0,0,0,0,0,0,0,0,0,0,0,0,0,3.5564,3.5523,3.5626,3.5619,3.5619,3.5668,3.5668,3.5669,3.5644,3.5642,3.564,3.5638,3.5677,3.568,3.5683,3.5739,0,0,3.5693,3.5694,0,0,0,0,0,0,0,0,3.5562,3.5568,3.562,3.562,3.562,3.5648,3.5645,3.5692,3.5644,3.5634,3.564,3.5637,3.567,3.5673,3.5685,3.5741,3.5742,3.5693,3.5695,3.5697,3.5697,0,0,0,0,0,0,0,3.5559,3.5566,3.5642,3.562,3.562,3.5613,3.5617,3.5654,3.5661,3.5635,3.5633,3.5639,3.5669,3.5682,3.5686,3.5743,3.5693,3.5696,3.5698,3.5699,3.5847,3.5849,0,0,0,0,0,0,3.5556,3.5564,3.5641,3.5643,3.5586,3.5616,3.5621,3.5641,3.5661,3.5662,3.564,3.5637,3.5677,3.5682,3.5687,3.5754,3.5697,3.57,3.5701,3.5845,3.5847,3.585,0,0,0,0,0,0,3.5554,3.5564,3.5639,3.5603,3.5612,3.562,3.5642,3.5643,3.5655,3.5665,3.5666,3.5652,3.5676,3.5682,3.5727,3.5755,3.5701,3.5704,3.5843,3.5846,3.5849,3.5887,0,0,0,0,0,0,3.5551,3.5563,3.5585,3.5604,3.5614,3.5679,3.5644,3.5645,3.5662,3.5658,3.5676,3.5677,3.5675,3.5722,3.573,3.5758,3.5706,3.584,3.5844,3.5848,3.5884,3.5891,3.5898,0,0,0,0,0,3.5548,3.5593,3.5586,3.5596,3.5642,3.5681,3.5687,3.5684,3.5664,3.5686,3.5692,3.5677,3.5751,3.5727,3.5735,3.5765,3.5838,3.5843,3.5847,3.588,3.589,3.5898,0,0,0,0,0,0,3.5576,3.5596,3.5588,3.5642,3.566,3.5677,3.5704,3.5694,3.5718,3.5713,3.5708,3.5712,3.5759,3.5766,3.5739,3.582,3.5791,3.5797,3.5813,3.5822,3.5829,3.5826,3.5709,0,0,0,0,0,3.5589,3.562,3.5635,3.5681,3.569,3.5696,3.5712,3.5709,3.5727,3.5735,3.5744,3.5761,3.5788,3.5806,3.5831,3.5885,3.5888,3.591,3.5917,3.5923,3.5928,3.5957,3.5967,3.5864,3.5864,3.5864,0,0,3.5615,3.5629,3.5649,3.5687,3.57,3.5732,3.5702,3.5736,3.5759,3.5739,3.5782,3.579,3.5808,3.5858,3.588,3.5865,3.5957,3.5929,3.5933,3.5935,3.5963,3.5972,3.5981,3.5867,3.5867,3.5866,0,0,3.5678,3.5693,3.5732,3.5747,3.577,3.5773,3.5783,3.5801,3.5806,3.5849,3.5835,3.5861,3.5908,3.5922,3.5935,3.6005,3.5992,3.6014,3.6051,3.6079,3.6087,3.6094,3.6119,3.6127,3.6019,3.6019,3.6019,0,3.5707,3.5755,3.5753,3.5789,3.5806,3.5791,3.5831,3.5845,3.5874,3.5885,3.5869,3.5928,3.5939,3.5992,3.6009,3.6021,3.6031,3.6011,3.6086,3.6093,3.61,3.6123,3.6132,3.6022,3.6021,3.6021,3.6021,0,3.5789,3.5822,3.5851,3.5881,3.5901,3.5939,3.5942,3.5963,3.5958,3.5963,3.6007,3.6021,3.6049,3.6061,3.6056,3.6113,3.6103,3.6087,3.6057,3.6112,3.6134,3.6143,3.6025,3.6024,3.6024,3.6023,0,0,3.5869,3.59,3.591,3.5924,3.5948,3.5973,3.6009,3.6039,3.6056,3.6076,3.6106,3.6147,3.6132,3.6147,3.6144,3.6169,3.6223,3.6149,3.615,3.6162,3.6286,3.6298,3.6308,3.6215,3.6217,3.6218,3.6284,0,3.5934,3.5999,3.6,3.6059,3.609,3.6077,3.6109,3.6126,3.6132,3.6158,3.6164,3.6193,3.6172,3.6181,3.6205,3.6211,3.6248,3.6207,3.6242,3.6243,3.6237,3.6319,3.6332,3.6393,3.6293,3.6294,3.6295,0,3.6017,3.6042,3.6105,3.6126,3.6138,3.6167,3.6194,3.6219,3.6239,3.6241,3.6259,3.6252,3.6288,3.6259,3.6308,3.6281,3.6295,3.6301,3.6303,3.6305,3.6272,3.6323,3.6413,3.6422,3.6309,3.6308,3.6307,0,3.6069,3.6118,3.6163,3.6175,3.6199,3.622,3.6231,3.6249,3.6266,3.629,3.6301,3.6328,3.6342,3.6362,3.6362,3.6341,3.6412,3.6383,3.6414,3.6415,3.6429,3.6428,3.6521,3.644,3.644,3.644,3.6439,0,3.614,3.6178,3.6186,3.6213,3.6256,3.6257,3.6299,3.6308,3.6324,3.6352,3.6343,3.6369,3.6368,3.6394,3.6395,3.6435,3.6442,3.6444,3.6444,3.6445,3.6444,3.6453,3.6449,3.6442,3.6442,3.6441,3.6441,0,3.6204,3.6211,3.6258,3.6279,3.6285,3.6316,3.6332,3.6358,3.6363,3.6399,3.6407,3.6415,3.6446,3.6449,3.6484,3.6484,3.6533,3.6528,3.6527,3.6526,3.6557,3.6554,3.6659,3.6672,3.6583,3.6584,3.6584,0,3.6248,3.6278,3.6303,3.6321,3.6334,3.6364,3.6383,3.6384,3.6404,3.6429,3.6451,3.6481,3.6505,3.6554,3.6563,3.659,3.6585,3.662,3.6589,3.6589,3.6585,3.6583,3.6585,3.6625,3.6627,3.6627,3.6628,0,3.6326,3.6329,3.6356,3.6386,3.6409,3.6431,3.6452,3.6468,3.6472,3.6494,3.6526,3.6545,3.6582,3.6612,3.6638,3.6648,3.6639,3.6638,3.6647,3.6647,3.6645,3.6646,3.6543,3.6635,3.6635,3.6634,3.6634,3.6633,3.6381,3.6408,3.6429,3.646,3.6477,3.6498,3.6523,3.6532,3.656,3.6591,3.659,3.6625,3.6644,3.6679,3.6691,3.6718,3.6706,3.6719,3.6722,3.6725,3.6728,3.6642,3.6723,3.6723,3.6723,3.6722,3.6722,0,3.6458,3.6472,3.6501,3.6532,3.6557,3.6548,3.6571,3.6592,3.6623,3.6643,3.6667,3.6704,3.6733,3.6745,3.6773,3.6792,3.6789,3.68,3.6798,3.68,3.6737,3.6726,3.6802,3.6802,3.6802,3.6802,3.6802,3.6802,3.6501,3.6545,3.655,3.6602,3.6615,3.6651,3.6665,3.6683,3.6699,3.6741,3.6766,3.6774,3.679,3.6819,3.6846,3.6848,3.6859,3.6871,3.6872,3.6812,3.6804,3.6797,3.6787,3.6874,3.6874,3.6933,3.6933,3.6934]}]]